sat.trackr.live / text

‹ back to catalog

UNKNOWN

NORAD 81749

UNKNOWN UNKNOWN UNKNOWN

§ Identity

Operator
Country
Launch date
Launch site
Launch vehicle
Mass (kg)
RCS (m²)

External: N2YO · Heavens-Above

§ Orbital elements

Epoch: 2026-09-15T05:23:12.282144Z

Period
112.70 min
Inclination
99.6670°
Eccentricity
0.0369075
Mean motion
12.77688898 rev/d
Perigee alt
1,065.5 km
Apogee alt
1,636.0 km
Semi-major
7,728.9 km
B*
4.5389e-4
RAAN
253.3600°
Arg perigee
325.1570°
Mean anomaly
93.5667°
Rev number
59,731

§ Raw data

UNKNOWN1 81749U          26258.22444771  .00000096  00000+0  45389-3 0  99992 81749  99.6670 253.3600 0369075 325.1570  93.5667 12.77688898597315

JSON: /api/v1/satellites/81749 · /tle

For live sub-satellite position, see the globe view (requires WebGL).

§ Visibility from observer

Set your observer location to see the next 7 days of passes ≥ 10°. The values pass through the URL so the page stays shareable.

No JS? Fill the form by hand. The geolocation button needs JavaScript.